�������C�����ː����j�^�v���󋵏��
Date,Time,Cs137(Bq/L),Cs134(Bq/L),�S��(Bq/L)
2019/03/24,00:00,-,-,17
2019/03/24,00:10,-,-,18
2019/03/24,00:20,-,-,20
2019/03/24,00:30,-,-,19
2019/03/24,00:40,-,-,17
2019/03/24,00:50,-,-,22
2019/03/24,01:00,-,-,20
2019/03/24,01:10,-,-,18
2019/03/24,01:20,-,-,18
2019/03/24,01:30,-,-,17
2019/03/24,01:40,-,-,18
2019/03/24,01:50,-,-,17
2019/03/24,02:00,-,-,18
2019/03/24,02:10,-,-,17
2019/03/24,02:20,-,-,17
2019/03/24,02:30,-,-,19
2019/03/24,02:40,-,-,19
2019/03/24,02:50,-,-,17
2019/03/24,03:00,-,-,17
2019/03/24,03:10,-,-,18
2019/03/24,03:20,-,-,17
2019/03/24,03:30,-,-,14
2019/03/24,03:40,-,-,13
2019/03/24,03:50,-,-,12
2019/03/24,04:00,-,-,10
2019/03/24,04:10,-,-,9.0
2019/03/24,04:20,-,-,9.7
2019/03/24,04:30,-,-,12
2019/03/24,04:40,-,-,12
2019/03/24,04:50,-,-,13
2019/03/24,05:00,-,-,16
2019/03/24,05:10,-,-,16
2019/03/24,05:20,-,-,16
2019/03/24,05:30,-,-,15
2019/03/24,05:40,-,-,17
2019/03/24,05:50,-,-,16
2019/03/24,06:00,-,-,16
2019/03/24,06:10,-,-,17
2019/03/24,06:20,-,-,17
2019/03/24,06:30,-,-,17
2019/03/24,06:40,-,-,19
2019/03/24,06:50,-,-,21
2019/03/24,07:00,-,-,19
2019/03/24,07:10,-,-,19
2019/03/24,07:20,-,-,19
2019/03/24,07:30,-,-,19
2019/03/24,07:40,-,-,16
2019/03/24,07:50,-,-,15
2019/03/24,08:00,-,-,15
2019/03/24,08:10,-,-,15
2019/03/24,08:20,-,-,15
2019/03/24,08:30,-,-,16
2019/03/24,08:40,-,-,16
2019/03/24,08:50,-,-,18
2019/03/24,09:00,-,-,18
2019/03/24,09:10,-,-,16
2019/03/24,09:20,-,-,16
2019/03/24,09:30,-,-,18
2019/03/24,09:40,-,-,17
2019/03/24,09:50,-,-,14
2019/03/24,10:00,-,-,15
2019/03/24,10:10,-,-,15
2019/03/24,10:20,-,-,15
2019/03/24,10:30,-,-,12
2019/03/24,10:40,-,-,13
2019/03/24,10:50,-,-,12
2019/03/24,11:00,-,-,10
2019/03/24,11:10,-,-,10
2019/03/24,11:20,-,-,9.3
2019/03/24,11:30,-,-,10
2019/03/24,11:40,-,-,11
2019/03/24,11:50,-,-,13
2019/03/24,12:00,-,-,13
2019/03/24,12:10,-,-,17
2019/03/24,12:20,-,-,18
2019/03/24,12:30,-,-,20
2019/03/24,12:40,-,-,19
2019/03/24,12:50,-,-,20
2019/03/24,13:00,-,-,18
2019/03/24,13:10,-,-,13
2019/03/24,13:20,-,-,14
2019/03/24,13:30,-,-,16
2019/03/24,13:40,-,-,16
2019/03/24,13:50,-,-,14
2019/03/24,14:00,-,-,17
2019/03/24,14:10,-,-,20
2019/03/24,14:20,-,-,21
2019/03/24,14:30,-,-,17
2019/03/24,14:40,-,-,16
2019/03/24,14:50,-,-,15
2019/03/24,15:00,-,-,14
2019/03/24,15:10,-,-,13
2019/03/24,15:20,-,-,12
2019/03/24,15:30,-,-,9.7
2019/03/24,15:40,-,-,9.9
2019/03/24,15:50,-,-,9.3
2019/03/24,16:00,-,-,12
2019/03/24,16:10,-,-,12
2019/03/24,16:20,-,-,12
2019/03/24,16:30,-,-,13
2019/03/24,16:40,-,-,14
2019/03/24,16:50,-,-,13
2019/03/24,17:00,-,-,10
2019/03/24,17:10,-,-,ND
2019/03/24,17:20,-,-,ND
2019/03/24,17:30,-,-,11
2019/03/24,17:40,-,-,ND
2019/03/24,17:50,-,-,9.6
2019/03/24,18:00,-,-,12
2019/03/24,18:10,-,-,9.9
2019/03/24,18:20,-,-,9.5
2019/03/24,18:30,-,-,ND
2019/03/24,18:40,-,-,11
2019/03/24,18:50,-,-,13
2019/03/24,19:00,-,-,13
2019/03/24,19:10,-,-,16
2019/03/24,19:20,-,-,17
2019/03/24,19:30,-,-,18
2019/03/24,19:40,-,-,17
2019/03/24,19:50,-,-,16
2019/03/24,20:00,-,-,16
2019/03/24,20:10,-,-,14
2019/03/24,20:20,-,-,15
2019/03/24,20:30,-,-,15
2019/03/24,20:40,-,-,16
2019/03/24,20:50,-,-,16
2019/03/24,21:00,-,-,16
2019/03/24,21:10,-,-,15
2019/03/24,21:20,-,-,14
2019/03/24,21:30,-,-,15
2019/03/24,21:40,-,-,15
2019/03/24,21:50,-,-,16
2019/03/24,22:00,-,-,14
2019/03/24,22:10,-,-,16
2019/03/24,22:20,-,-,16
2019/03/24,22:30,-,-,13
2019/03/24,22:40,-,-,13
2019/03/24,22:50,-,-,12
2019/03/24,23:00,-,-,15
2019/03/24,23:10,-,-,17
2019/03/24,23:20,-,-,19
2019/03/24,23:30,-,-,18
2019/03/24,23:40,-,-,19
2019/03/24,23:50,-,-,19
